CAPE
600 606 435 819 1611 1889 1344 1272 1163 1149 1190 1410 1409 1875 2110 2513 2610 2220 2287 2077 2274 2496 2110 1969 1736 1260 1072 1129 1042 1351 1494 1587 1630 1694 1743 1891 1813 1503 1250 1033 996 879 753
730 687 628 682 1284 1872 1589 1648 1623 1338 1346 1532 1853 1835 2063 2149 2723 2705 2396 2465 2368 2276 2409 2579 2453 2161 1987 2019 2059 2054 2048 2104 2122 2130 2171 2208 2206 2213 2073 1585 1254 1217 1097
878 699 641 679 896 1359 1742 1428 1800 2122 1900 1739 2165 1991 2018 2110 2239 2598 2765 2701 2596 2521 2442 2467 2427 2336 2402 2495 2461 2401 2312 2297 2284 2275 2304 2270 2245 2188 2173 2165 2049 1338 903
1034 846 804 676 697 835 1150 1506 1384 1382 1951 2051 1814 2076 1922 1919 2358 2379 2269 2482 2630 2656 2607 2583 2601 2616 2651 2630 2575 2509 2427 2372 2336 2386 2380 2282 2052 1820 1803 1715 1949 1655 1054
921 992 915 900 763 666 717 890 1120 1237 1217 1574 1980 2101 2043 1994 1928 2062 2252 2469 2456 2452 2485 2542 2627 2737 2808 2763 2691 2695 2595 2467 2392 2348 2265 1946 1629 1363 1513 1539 1814 1994 1520
549 1098 931 1017 1058 1049 885 673 675 723 799 933 1407 1736 2183 2129 2000 1916 1861 1922 2198 2322 2305 2296 2348 2376 2388 2430 2492 2468 2429 2426 2275 2296 2209 1773 1441 1526 1474 1700 1896 1949 1401
689 698 1274 1069 1328 1331 1241 1099 1002 826 595 582 723 1169 1503 1874 2143 2190 2265 2231 2165 2114 2080 2044 2042 1973 1893 1841 1810 1804 1807 1932 2170 2259 1988 1490 1324 1263 1552 1842 2026 2062 1612
1207 1208 1308 1458 1451 1552 1583 1544 1473 1303 1153 1023 898 915 1007 1156 1596 1870 2010 2116 2104 2094 2063 2021 1986 1964 1904 1962 2013 1882 1615 1378 1239 1133 1059 1176 1167 1530 1828 2022 2069 1818 1266
2172 1450 1561 1602 1566 1647 1786 1770 1701 1587 1534 1512 1460 1307 1147 1121 1197 1437 1644 1725 1800 1775 1742 1752 1799 1769 1730 1686 1597 1487 1450 1375 1248 1249 1290 1352 1345 1405 1733 2036 1604 1515 1333
2036 2574 2290 1828 1711 1766 1754 1719 1732 1731 1659 1573 1540 1516 1460 1384 1266 1329 1429 1554 1402 1467 1468 1407 1382 1348 1397 1379 1362 1363 1323 1367 1498 1521 1474 1375 1305 1594 1588 1900 1615 1334 1202
1080 1534 1922 2318 2334 2056 1754 1623 1718 1693 1631 1525 1525 1478 1547 1577 1583 1524 1427 1356 1312 1279 1322 1385 1487 1648 1781 1836 1827 1856 1882 1912 1861 1722 1582 1469 1682 1647 1429 1547 1019 923 1035
1117 1344 1560 1758 2113 2275 2430 2397 2255 1792 1726 1645 1565 1743 1569 1546 1621 1644 1649 1654 1694 1730 1866 1971 2043 2135 2193 2256 2369 2473 2443 2318 2230 1980 1815 1784 1855 1115 1058 1025 942 1126 896
618 1277 1667 1921 2210 2745 2809 2517 2471 2416 2341 1968 1778 1765 1798 1723 1792 1868 1926 1970 2032 2163 2280 2325 2351 2396 2483 2576 2697 2799 2819 2678 2304 2176 2002 1799 1746 843 924 777 1039 906 812
145 512 984 1757 2161 2435 3030 3157 2809 2742 2591 2423 2301 2265 2241 2193 2073 2111 2152 2228 2311 2389 2455 2531 2595 2648 2606 2692 2833 2630 2618 2470 2258 1979 1683 1491 1509 987 890 863 802 828 337
0 11 334 757 1212 1409 1633 2286 2922 3032 2826 2876 2788 2644 2576 2496 2437 2428 2409 2395 2466 2467 2381 2389 2449 2333 2316 1807 1574 1526 1532 1656 1629 1611 1382 1346 1252 1072 849 1173 733 508 468
0 0 46 250 463 906 1231 1477 2020 2430 2819 3037 3035 2940 2833 2752 2749 2703 2687 2681 2465 2354 2298 2333 2290 1988 1423 1001 743 542 711 1223 1125 1029 1129 1167 1112 1223 1260 759 631 508 173
3 0 0 29 39 278 587 865 1123 1498 1745 1767 1913 2251 2775 2846 2804 2862 2883 2835 2860 2783 2390 2107 2136 1284 812 228 118 397 819 1177 1043 1073 1154 1265 1313 1098 873 941 586 397 181
0 0 0 0 0 0 154 429 713 811 1104 1454 1638 1820 2075 2230 2307 2393 2459 2552 2693 2694 2576 2257 1187 797 272 505 732 1101 1058 1105 988 1030 860 1279 1347 1238 959 629 427 370 335
0 0 0 0 0 0 0 0 210 503 642 833 1135 1458 1699 1880 2036 2015 2024 2017 1836 2357 2530 2358 1779 1140 813 1325 1284 1100 1023 939 958 971 1049 1251 1045 1299 810 333 209 237 224
0 0 0 0 0 0 0 0 15 167 559 466 702 871 1091 1090 1176 1375 1262 1140 1352 1741 1743 1415 1231 1262 1261 1377 1326 1151 1005 977 956 918 1009 928 912 823 551 235 134 179 146
0 0 0 0 0 0 0 0 0 1 83 236 446 603 595 738 840 933 1054 833 421 422 532 752 856 860 1000 1150 1192 1131 1033 940 814 926 825 786 604 628 277 184 109 87 73
0 0 0 0 0 0 0 0 0 0 0 96 242 413 401 470 616 705 583 452 565 572 521 729 811 865 963 878 773 888 819 709 582 481 367 423 571 273 321 193 126 117 71
0 0 0 0 0 0 0 0 0 0 0 0 1 31 322 446 581 620 683 585 398 398 449 589 734 724 643 469 342 238 141 122 137 147 190 234 147 161 180 203 125 109 61
0 0 0 0 0 0 0 0 0 0 0 0 0 0 16 115 244 482 402 379 339 344 387 354 405 382 389 269 194 104 52 43 45 54 71 102 112 116 133 125 91 105 92
0 0 0 0 0 0 0 0 0 0 0 0 0 0 0 0 81 233 313 334 318 296 284 218 185 124 147 143 105 77 57 67 61 36 86 135 149 155 188 157 97 133 52
0 0 0 0 0 0 0 0 0 0 0 0 0 0 0 0 0 7 43 127 163 211 182 195 125 116 85 31 18 0 2 15 49 72 86 115 160 183 152 122 126 95 56
CIN
-161 -135 -131 -190 -84 -31 -50 -70 -43 -47 -60 -96 -61 -92 -69 -54 -30 -71 -80 -110 -99 -77 -113 -139 -167 -245 -262 -250 -231 -188 -162 -150 -167 -168 -114 -64 -52 -68 -68 -81 -79 -74 -63
-180 -152 -133 -175 -126 -39 -33 -93 -65 -72 -79 -138 -59 -98 -86 -71 -42 -44 -63 -67 -90 -110 -100 -85 -106 -134 -148 -137 -126 -120 -114 -94 -97 -134 -95 -49 -13 -14 -7 -26 -47 -41 -32
-153 -155 -172 -171 -159 -99 -59 -70 -93 -68 -62 -102 -46 -56 -117 -86 -74 -65 -57 -65 -76 -88 -105 -109 -110 -116 -121 -106 -103 -104 -98 -89 -85 -96 -97 -67 -37 -16 -23 -5 -3 -22 -52
-163 -147 -184 -195 -186 -164 -119 -88 -80 -153 -102 -69 -84 -71 -62 -117 -73 -72 -95 -100 -91 -94 -102 -101 -94 -85 -86 -81 -89 -93 -92 -98 -82 -64 -78 -80 -76 -82 -56 -46 -4 -6 -43
-196 -142 -179 -191 -204 -179 -157 -148 -119 -106 -192 -172 -95 -74 -84 -62 -77 -119 -112 -87 -95 -113 -114 -112 -108 -91 -84 -83 -74 -91 -70 -80 -84 -70 -97 -133 -174 -201 -101 -48 -15 0 -2
-226 -178 -167 -153 -162 -169 -171 -197 -187 -164 -149 -251 -204 -156 -80 -90 -108 -99 -86 -154 -130 -119 -136 -153 -147 -139 -152 -143 -124 -104 -76 -66 -92 -58 -81 -119 -190 -150 -135 -30 -7 -2 -19
-82 -114 -146 -173 -162 -169 -173 -164 -201 -212 -228 -234 -278 -245 -211 -167 -116 -123 -93 -82 -91 -108 -130 -149 -162 -171 -182 -211 -224 -187 -188 -132 -66 -31 -66 -154 -177 -157 -72 -24 -2 0 -8
-161 -171 -169 -154 -168 -150 -139 -152 -174 -181 -176 -193 -180 -206 -246 -259 -220 -168 -138 -97 -90 -97 -107 -130 -130 -160 -168 -154 -123 -136 -156 -171 -188 -158 -140 -132 -124 -77 -28 -2 0 -5 -21
-53 -109 -127 -126 -147 -138 -120 -137 -166 -153 -145 -131 -116 -122 -145 -206 -264 -238 -188 -132 -102 -113 -135 -145 -144 -163 -213 -191 -161 -184 -170 -205 -202 -168 -171 -143 -119 -110 -31 0 -22 -17 -16
-41 -16 -63 -63 -154 -130 -115 -131 -140 -122 -116 -126 -139 -127 -110 -110 -155 -216 -189 -139 -128 -131 -150 -169 -190 -215 -237 -217 -185 -162 -163 -181 -129 -136 -136 -107 -91 -41 -31 -2 -14 -21 -12
-174 -99 -82 -83 -69 -65 -115 -117 -133 -109 -89 -101 -19 -87 -133 -114 -92 -82 -76 -100 -98 -109 -117 -147 -111 -111 -114 -106 -78 -56 -58 -47 -61 -64 -71 -57 -38 -29 -44 -29 -61 -44 -21
-181 -148 -112 -80 -38 -54 -49 -38 -25 -60 -92 -82 -20 -7 -15 -91 -91 -125 -101 -42 -23 -25 -54 -57 -64 -77 -68 -51 -26 -16 -10 -3 -10 -17 -26 -24 -10 -68 -59 -52 -42 -19 -34
-235 -125 -83 -50 -24 -2 -27 -43 -31 -14 -14 -30 -74 -71 -42 -74 -75 -52 -43 -40 -23 -24 -33 -39 -32 -29 -13 -6 -1 0 0 -1 -11 -7 -20 -22 -12 -27 -28 -54 -19 -24 -32
-330 -253 -168 -44 -16 -3 0 0 -10 -11 -15 -14 -6 -19 -17 -14 -35 -65 -48 -35 -22 -16 -30 -27 -16 -6 -9 -9 -7 -26 -15 -12 -10 -21 -38 -36 -14 -7 -9 -27 -33 -29 -103
0 -430 -281 -177 -95 -54 -49 -3 0 -2 -7 -9 -7 -3 -4 -12 -17 -7 -6 -9 -16 -12 -7 -6 -6 -17 -25 -48 -55 -63 -64 -65 -56 -50 -48 -32 -3 0 -6 -3 -43 -67 -68
0 0 -460 -323 -235 -114 -47 -34 -1 0 0 -1 -1 -1 -11 -7 -2 -3 -2 -2 -4 -7 -2 -1 -3 -22 -139 -371 -285 -269 -122 -60 -44 -69 -59 -32 -3 0 0 -33 -60 -75 -128
-532 0 0 -463 -386 -263 -141 -101 -70 -22 -22 -50 -33 -23 -5 -1 0 -3 -4 -7 -2 0 -3 -29 -43 -120 -289 -28 -317 -286 -55 -70 -73 -41 -35 -15 -2 0 -5 -11 -52 -76 -130
0 0 0 0 0 0 -238 -153 -109 -103 -72 -44 -41 -52 -37 -26 -23 -25 -25 -13 -5 -6 -2 -6 -99 -102 -418 -289 -190 -70 -69 -79 -82 -61 -52 -10 -2 0 0 -17 -58 -85 -79
0 0 0 0 0 0 0 0 -193 -105 -84 -96 -64 -49 -30 -18 -17 -25 -22 -40 -82 -24 -4 -11 -45 -57 -82 -47 -43 -36 -64 -94 -76 -55 -37 -16 -13 0 -6 -67 -113 -101 -108
0 0 0 0 0 0 0 0 -249 -133 -36 -83 -62 -67 -57 -61 -47 -21 -61 -77 -103 -62 -50 -61 -103 -76 -86 -90 -69 -66 -74 -54 -45 -46 -54 -70 -35 -38 -46 -74 -190 -153 -159
0 0 0 0 0 0 0 0 0 0 -84 -53 -30 -34 -59 -64 -48 -53 -29 -43 -76 -247 -210 -120 -124 -96 -78 -110 -62 -81 -55 -38 -56 -56 -57 -62 -65 -60 -65 -106 -220 -197 -200
0 0 0 0 0 0 0 0 0 0 0 -2 -7 -7 -26 -41 -30 -20 -52 -45 -82 -97 -116 -89 -73 -57 -38 -51 -72 -44 -30 -35 -51 -71 -77 -65 -41 -88 -80 -94 -198 -179 -189
0 0 0 0 0 0 0 0 0 0 0 0 0 -7 -3 -2 -1 0 0 -7 -34 -55 -43 -29 -28 -30 -19 -27 -26 -54 -102 -92 -76 -74 -81 -65 -81 -84 -88 -41 -166 -162 -167
0 0 0 0 0 0 0 0 0 0 0 0 0 0 -13 -2 -5 0 0 0 0 -6 -8 -19 -21 -24 -18 -22 -20 -22 -29 -58 -62 -72 -75 -74 -58 -90 -78 -50 -40 -117 -121
0 0 0 0 0 0 0 0 0 0 0 0 0 0 0 -1 -1 0 0 0 0 -2 -2 -9 -23 -26 -25 -19 -14 -12 -9 -5 -17 -44 -50 -42 -42 -64 -37 -56 -67 -77 -127
0 0 0 0 0 0 0 0 0 0 0 0 0 0 0 0 0 -5 -1 0 0 0 0 0 -2 -2 -3 -11 -33 -4 -31 -37 -10 -1 -9 -24 -22 -13 -6 -24 -38 -30 -62
Wind_Speed
6 9 9 12 12 14 15 14 12 13 10 11 7 9 9 10 12 14 15 15 13 11 10 8 5 6 6 7 11 14 14 18 19 21 25 26 28 32 36 40 44 48 51
6 9 11 15 14 13 16 17 17 14 14 12 12 10 10 11 13 14 14 17 16 13 11 12 9 12 10 12 15 17 19 20 19 17 26 29 32 31 33 39 43 47 51
8 8 12 14 16 12 13 16 19 19 18 16 16 14 13 14 15 15 15 16 18 18 17 16 14 16 15 16 17 20 22 25 27 25 21 30 32 31 31 36 40 44 50
9 8 9 7 14 14 15 17 19 21 21 20 19 18 16 15 15 16 17 17 18 18 17 18 19 18 17 20 21 23 23 26 29 30 25 24 34 33 31 34 38 45 49
11 7 7 8 8 17 19 17 17 22 21 21 23 22 21 18 16 16 18 18 17 17 18 18 18 18 19 21 22 25 27 26 27 28 25 25 29 33 33 35 37 43 46
15 8 8 10 11 9 17 21 21 18 20 27 23 22 24 21 17 17 20 19 19 17 16 18 20 18 18 18 21 22 23 24 23 27 23 22 19 31 35 37 40 44 44
18 9 9 13 14 16 14 21 22 20 23 23 24 26 23 21 22 21 21 23 22 20 18 17 17 18 19 19 20 22 22 26 28 26 23 25 24 30 37 38 42 46 49
21 14 16 17 15 14 19 20 19 22 24 23 22 25 24 24 25 23 22 27 25 21 21 21 22 16 19 24 25 22 24 28 30 34 34 28 31 31 42 44 46 47 45
32 33 21 15 16 17 16 18 19 25 24 23 24 24 22 19 22 24 31 32 27 22 23 25 24 19 17 32 33 25 23 21 32 35 35 35 34 34 47 49 47 46 43
36 28 27 24 22 16 14 16 19 24 22 26 24 25 24 20 22 22 30 30 27 26 24 23 24 24 21 34 38 37 29 26 32 36 39 39 38 39 49 47 52 46 47
33 33 32 29 20 19 17 19 21 22 22 25 25 25 24 26 21 24 27 30 29 28 28 26 28 29 28 31 44 41 36 34 35 37 38 40 42 41 42 42 46 48 47
38 34 32 29 32 27 18 19 22 22 22 22 25 25 26 25 23 24 27 31 30 32 28 28 29 29 31 34 45 38 34 35 37 38 38 38 38 37 41 42 44 46 44
34 35 31 33 37 30 24 22 24 26 24 21 24 21 25 25 24 24 27 31 31 33 33 30 30 31 37 37 36 35 40 43 42 40 38 39 41 39 42 42 41 42 40
45 41 34 32 39 35 37 33 30 29 27 23 24 23 23 21 22 23 26 29 28 35 31 33 36 38 40 38 39 41 44 42 42 40 43 43 43 42 40 40 38 38 36
nan nan 36 35 35 40 42 40 37 33 32 30 28 27 25 21 21 22 23 27 29 31 35 39 39 43 42 43 43 44 46 44 38 40 43 41 42 44 40 40 37 36 35
nan nan nan 49 46 44 44 45 44 38 39 38 29 33 32 28 33 28 24 25 33 38 34 33 36 39 46 56 53 50 47 34 39 39 41 40 38 42 39 38 36 34 35
nan nan nan nan nan 55 49 50 51 54 52 57 55 49 41 37 35 34 34 35 39 46 37 38 40 44 49 46 53 57 37 36 40 39 39 39 38 37 38 36 35 33 31
nan nan nan nan nan nan 53 51 54 57 58 54 56 55 56 55 51 43 41 52 48 42 43 43 43 45 47 51 58 54 42 42 43 48 46 42 39 37 33 34 31 31 31
nan nan nan nan nan nan nan nan 56 58 61 64 62 62 59 55 57 56 53 49 47 49 48 46 46 46 49 51 57 50 47 40 43 50 52 49 39 36 29 31 27 29 30
nan nan nan nan nan nan nan nan nan 60 62 66 66 69 63 61 67 66 61 58 55 56 55 49 46 47 49 49 47 43 40 33 38 43 45 46 49 38 26 31 24 27 27
nan nan nan nan nan nan nan nan nan nan nan 63 67 70 69 69 70 71 66 64 65 66 60 56 51 49 49 42 37 36 29 25 31 32 35 40 42 32 31 34 22 nan nan
nan nan nan nan nan nan nan nan nan nan nan nan 65 66 71 70 70 70 68 66 65 60 58 53 49 50 45 39 35 37 31 30 30 32 31 34 33 31 36 28 23 29 nan
nan nan nan nan nan nan nan nan nan nan nan nan nan nan 67 66 66 67 68 67 66 63 57 54 50 48 46 38 38 38 31 28 31 27 25 28 27 23 23 18 28 31 nan
nan nan nan nan nan nan nan nan nan nan nan nan nan nan nan 68 66 65 65 64 64 63 60 57 55 54 51 45 43 40 nan nan nan nan nan 23 30 26 29 21 nan 30 nan
nan nan nan nan nan nan nan nan nan nan nan nan nan nan nan nan nan 66 64 63 64 61 58 57 56 56 57 53 46 nan nan nan nan nan nan 15 26 27 29 25 nan 31 nan
nan nan nan nan nan nan nan nan nan nan nan nan nan nan nan nan nan nan nan 66 65 65 62 58 59 59 nan nan nan nan nan nan nan nan nan 21 22 26 28 25 28 nan nan
Wind_Direction
240 224 215 240 241 214 204 219 220 223 211 191 221 226 224 230 232 230 223 222 222 213 220 237 235 262 270 287 303 300 311 319 334 333 335 338 342 347 353 355 358 0 359
301 254 235 231 244 239 225 217 228 226 232 224 216 232 227 238 251 251 245 245 250 247 241 251 259 264 276 289 294 310 315 316 322 336 325 326 332 338 343 351 353 355 356
296 289 254 235 247 239 239 236 231 233 228 235 240 234 235 229 237 251 258 258 259 261 264 269 271 274 280 286 294 298 303 308 318 319 322 318 319 325 336 345 348 350 351
276 298 315 274 242 247 235 235 235 239 235 230 233 241 242 239 243 247 251 251 253 257 264 269 276 281 283 286 290 299 301 304 306 310 316 315 311 314 329 342 347 346 348
259 294 326 320 264 242 250 244 238 241 243 238 236 238 241 244 246 254 254 258 262 261 266 271 276 286 300 303 298 300 306 307 308 311 312 312 309 311 329 331 341 339 346
271 173 299 302 293 271 248 255 246 244 241 249 247 244 245 244 251 260 261 259 260 267 267 271 278 286 292 311 319 318 316 310 316 312 318 322 323 314 319 327 330 332 339
290 288 276 280 304 300 272 255 263 260 250 251 250 254 252 247 250 256 265 259 261 265 267 269 271 279 291 291 295 311 318 328 336 319 324 329 328 319 317 323 330 330 333
243 272 284 286 299 294 280 276 259 258 263 263 258 259 258 255 262 265 266 259 262 264 267 270 275 272 283 287 284 290 298 307 315 316 329 331 324 329 326 322 325 324 325
227 229 238 280 302 299 285 279 278 264 260 261 262 263 264 259 269 274 268 264 266 268 269 273 280 284 293 297 291 292 290 301 303 321 322 323 324 320 319 314 318 321 327
219 219 230 235 248 277 288 283 277 273 271 262 260 263 267 263 266 273 273 267 267 268 268 274 290 295 291 290 290 290 295 300 295 300 300 304 310 311 321 319 315 319 320
211 222 236 215 227 241 261 277 275 274 270 270 266 262 266 270 268 280 284 272 270 267 267 268 271 283 289 284 290 290 299 292 293 294 294 297 302 308 308 307 312 312 316
225 222 228 239 219 224 247 264 272 277 280 270 264 266 265 269 282 281 290 293 285 279 278 274 271 278 283 287 289 299 302 293 288 291 296 299 305 308 308 307 307 308 315
225 232 226 223 218 222 245 262 260 270 268 271 271 266 263 263 265 290 293 300 301 289 286 288 290 286 276 280 291 295 293 289 290 292 294 296 302 306 304 303 302 305 314
237 232 231 226 224 234 239 248 255 261 259 266 265 261 260 262 270 278 284 288 300 293 292 288 284 285 287 283 281 285 287 290 293 294 291 292 294 298 300 300 302 306 313
nan nan 235 246 243 242 246 243 241 247 253 255 265 266 260 259 263 277 285 289 293 297 285 285 287 287 286 286 285 283 282 285 290 290 290 292 294 293 298 301 300 307 313
nan nan nan 257 256 253 245 239 240 242 236 242 239 250 246 244 256 267 276 281 291 294 286 292 299 301 307 297 280 270 270 281 287 287 289 291 291 291 296 298 297 302 313
nan nan nan nan nan 255 249 240 238 242 242 249 244 237 237 237 247 262 277 283 290 290 290 297 303 303 304 302 307 305 292 274 282 288 289 290 287 286 296 296 296 302 312
nan nan nan nan nan nan 248 247 242 239 242 241 244 245 241 243 245 254 260 272 271 273 282 291 297 299 302 307 307 300 292 292 291 289 287 286 285 285 285 289 291 299 310
nan nan nan nan nan nan nan nan 248 244 240 240 241 242 239 247 253 254 265 266 272 279 282 287 291 294 300 300 302 299 282 286 289 290 291 280 278 278 273 280 286 302 305
nan nan nan nan nan nan nan nan nan 249 246 243 242 241 241 248 254 255 260 262 265 265 272 280 285 289 297 299 306 295 283 277 290 294 301 313 289 272 264 267 280 298 300
nan nan nan nan nan nan nan nan nan nan nan 248 245 244 238 248 251 254 256 260 262 263 268 273 278 281 283 288 289 292 305 307 292 291 293 296 292 265 251 249 267 nan nan
nan nan nan nan nan nan nan nan nan nan nan nan 248 247 243 249 249 252 253 256 259 261 265 268 271 272 271 269 293 303 304 299 293 284 303 308 281 274 254 268 262 272 nan
nan nan nan nan nan nan nan nan nan nan nan nan nan nan 250 250 250 250 253 255 258 260 262 264 265 269 269 276 277 277 283 288 288 279 281 298 283 274 255 228 259 269 nan
nan nan nan nan nan nan nan nan nan nan nan nan nan nan nan 250 250 250 252 254 256 259 260 261 262 261 265 267 269 270 nan nan nan nan nan 270 264 274 250 235 nan 271 nan
nan nan nan nan nan nan nan nan nan nan nan nan nan nan nan nan nan 251 252 253 255 258 257 257 258 257 258 257 259 nan nan nan nan nan nan 255 238 268 254 251 nan 264 nan
nan nan nan nan nan nan nan nan nan nan nan nan nan nan nan nan nan nan nan 254 255 256 256 258 257 256 nan nan nan nan nan nan nan nan nan 243 243 258 250 251 263 nan nan